TimeEST,TemperatureF,Dew PointF,Humidity,Sea Level PressureIn,VisibilityMPH,Wind Direction,Wind SpeedMPH,Gust SpeedMPH,PrecipitationIn,Events,Conditions,WindDirDegrees,DateUTC
12:56 AM,48.9,46.0,90,29.95,10.0,ENE,6.9,-,N/A,,Overcast,70,2013-02-26 05:56:00
1:56 AM,51.1,48.9,92,29.92,9.0,East,15.0,20.7,0.03,Rain,Light Rain,80,2013-02-26 06:56:00
2:02 AM,51.8,48.2,88,29.92,8.0,East,13.8,-,0.00,Rain,Light Rain,80,2013-02-26 07:02:00
2:53 AM,53.6,51.8,94,29.88,8.0,East,11.5,-,0.02,Rain,Light Rain,80,2013-02-26 07:53:00
2:56 AM,53.1,51.1,93,29.88,9.0,East,16.1,20.7,0.02,Rain,Light Rain,80,2013-02-26 07:56:00
3:02 AM,53.6,51.8,94,29.88,9.0,East,12.7,20.7,0.00,Rain,Light Rain,80,2013-02-26 08:02:00
3:56 AM,54.0,53.1,97,29.86,3.0,ENE,10.4,-,0.22,Rain,Rain,70,2013-02-26 08:56:00
4:56 AM,55.9,55.0,97,29.81,8.0,ENE,12.7,-,0.11,Rain,Light Rain,60,2013-02-26 09:56:00
5:51 AM,55.4,55.4,100,29.79,10.0,ENE,10.4,-,0.02,Rain,Light Rain,70,2013-02-26 10:51:00
5:56 AM,55.9,55.0,97,29.79,10.0,ENE,9.2,-,0.02,Rain,Light Rain,60,2013-02-26 10:56:00
6:56 AM,61.0,60.1,97,29.76,6.0,East,11.5,-,0.02,Rain,Light Rain,90,2013-02-26 11:56:00
7:56 AM,62.1,60.1,93,29.74,5.0,SE,12.7,-,0.05,Rain,Rain,140,2013-02-26 12:56:00
8:03 AM,62.6,60.8,94,29.75,2.0,SE,17.3,20.7,0.05,Rain,Heavy Rain,140,2013-02-26 13:03:00
8:15 AM,62.6,60.8,94,29.75,5.0,SE,15.0,-,0.14,Rain,Light Rain,140,2013-02-26 13:15:00
8:56 AM,64.0,63.0,96,29.74,4.0,SE,16.1,-,0.27,Rain-Thunderstorm,Thunderstorms and Rain,140,2013-02-26 13:56:00
9:47 AM,66.2,64.4,94,29.73,4.0,SSE,13.8,-,0.13,Rain,Light Rain,160,2013-02-26 14:47:00
9:56 AM,66.9,64.9,93,29.73,3.0,South,25.3,35.7,0.22,Rain,Heavy Rain,170,2013-02-26 14:56:00
11:08 AM,66.2,66.2,100,29.72,2.0,SSW,19.6,36.8,0.18,Rain,Heavy Rain,210,2013-02-26 16:08:00
11:13 AM,66.2,64.4,94,29.72,10.0,South,19.6,31.1,0.20,Rain,Light Rain,190,2013-02-26 16:13:00
11:39 AM,68.0,64.4,88,29.69,10.0,SSW,20.7,29.9,0.20,,Mostly Cloudy,200,2013-02-26 16:39:00
11:56 AM,70.0,64.0,81,29.68,10.0,SSW,20.7,33.4,0.20,,Mostly Cloudy,200,2013-02-26 16:56:00
12:56 PM,71.1,64.0,78,29.64,10.0,SSW,25.3,40.3,0.02,,Mostly Cloudy,200,2013-02-26 17:56:00
1:56 PM,73.0,64.0,73,29.60,10.0,SSW,29.9,43.7,0.01,,Overcast,200,2013-02-26 18:56:00
2:56 PM,71.1,63.0,75,29.60,10.0,SSW,31.1,42.6,N/A,,Mostly Cloudy,210,2013-02-26 19:56:00
3:16 PM,69.8,62.6,78,29.60,10.0,SSW,24.2,40.3,N/A,,Overcast,210,2013-02-26 20:16:00
3:56 PM,69.1,63.0,81,29.61,10.0,SSW,20.7,28.8,N/A,,Mostly Cloudy,210,2013-02-26 20:56:00
4:21 PM,68.0,62.6,83,29.60,10.0,SW,20.7,26.5,N/A,,Mostly Cloudy,220,2013-02-26 21:21:00
4:56 PM,69.1,62.1,78,29.60,10.0,SW,13.8,23.0,N/A,,Mostly Cloudy,220,2013-02-26 21:56:00
5:56 PM,66.9,59.0,76,29.60,10.0,South,10.4,-,N/A,,Scattered Clouds,190,2013-02-26 22:56:00
6:56 PM,63.0,57.0,81,29.62,10.0,SSW,10.4,-,N/A,,Mostly Cloudy,200,2013-02-26 23:56:00
7:56 PM,62.1,55.9,80,29.66,10.0,SSW,6.9,-,N/A,,Mostly Cloudy,210,2013-02-27 00:56:00
8:56 PM,61.0,54.0,78,29.67,10.0,SSW,9.2,-,N/A,,Mostly Cloudy,200,2013-02-27 01:56:00
9:56 PM,62.1,52.0,70,29.70,10.0,SW,10.4,-,N/A,,Mostly Cloudy,220,2013-02-27 02:56:00
10:56 PM,62.1,50.0,65,29.71,10.0,SW,11.5,-,N/A,,Mostly Cloudy,220,2013-02-27 03:56:00
11:56 PM,62.1,48.9,62,29.71,10.0,SW,12.7,-,N/A,,Overcast,220,2013-02-27 04:56:00